Lake Tuscaloosa Weather Center

Moon Phase Calendar



Lake Tuscaloosa Water Level
Online Cameras

 


      

Current Conditions in Mariners Cove
8/13/2022 10:35:52 PM

76°F
Feels Like 77
Clear
Humidity
84%
Pressure
30.03"
Wind
0
Dew Point
71°F
UV Index
0/10 (Low)
Visibility
6 mi

Hourly Forecast

Date & Time Sat, Aug 13
10:00 PM
Sat, Aug 13
11:00 PM
Sun, Aug 14
12:00 AM
Sun, Aug 14
1:00 AM
Sun, Aug 14
2:00 AM
Sun, Aug 14
3:00 AM
Sun, Aug 14
4:00 AM
Sun, Aug 14
5:00 AM
Sun, Aug 14
6:00 AM
Sun, Aug 14
7:00 AM
Sun, Aug 14
8:00 AM
Sun, Aug 14
9:00 AM
Sun, Aug 14
10:00 AM
Sun, Aug 14
11:00 AM
Sun, Aug 14
12:00 PM
Sun, Aug 14
1:00 PM
Sun, Aug 14
2:00 PM
Sun, Aug 14
3:00 PM
Sun, Aug 14
4:00 PM
Sun, Aug 14
5:00 PM
Sun, Aug 14
6:00 PM
Sun, Aug 14
7:00 PM
Sun, Aug 14
8:00 PM
Sun, Aug 14
9:00 PM
Sun, Aug 14
10:00 PM
Sun, Aug 14
11:00 PM
Mon, Aug 15
12:00 AM
Mon, Aug 15
1:00 AM
Mon, Aug 15
2:00 AM
Mon, Aug 15
3:00 AM
Mon, Aug 15
4:00 AM
Mon, Aug 15
5:00 AM
Mon, Aug 15
6:00 AM
Mon, Aug 15
7:00 AM
Mon, Aug 15
8:00 AM
Mon, Aug 15
9:00 AM
Mon, Aug 15
10:00 AM
Mon, Aug 15
11:00 AM
Mon, Aug 15
12:00 PM
Mon, Aug 15
1:00 PM
Mon, Aug 15
2:00 PM
Mon, Aug 15
3:00 PM
Mon, Aug 15
4:00 PM
Mon, Aug 15
5:00 PM
Mon, Aug 15
6:00 PM
Mon, Aug 15
7:00 PM
Mon, Aug 15
8:00 PM
Mon, Aug 15
9:00 PM
Condition
Clear

Clear

Clear

Clear

Clear

Clear

Clear

Clear

Clear

Clear

Clear

Clouds

Clouds

Clouds

Clouds

Clouds

Clear

Clear

Clear

Clouds

Clouds

Clouds

Clear

Clear

Clouds

Clouds

Clouds

Clouds

Clouds

Clouds

Clouds

Clouds

Clouds

Clouds

Clouds

Clouds

Clouds

Clouds

Clouds

Clouds

Clouds

Clouds

Clouds

Clouds

Clouds

Clouds

Rain

Clouds
Temperature 76°F76°F75°F74°F73°F71°F70°F69°F69°F70°F76°F80°F85°F89°F93°F95°F97°F98°F97°F96°F94°F87°F83°F81°F79°F78°F77°F75°F74°F74°F74°F73°F72°F74°F79°F84°F88°F93°F96°F97°F98°F99°F99°F96°F91°F88°F85°F82°F
Feels Like 77°F77°F76°F75°F73°F72°F70°F70°F69°F71°F76°F83°F87°F91°F93°F95°F96°F97°F96°F94°F94°F87°F83°F81°F79°F78°F77°F75°F75°F74°F74°F74°F73°F75°F79°F86°F91°F94°F96°F98°F98°F99°F100°F98°F94°F91°F88°F85°F
Cloudiness 0%0%0%0%0%0%0%0%0%0%5%45%45%37%31%27%2%2%3%16%14%13%6%6%14%11%13%21%48%71%65%61%56%48%12%19%16%17%24%28%66%62%65%72%73%70%95%81%
Visibility 6 mi6 mi6 mi6 mi6 mi6 mi6 mi6 mi6 mi6 mi6 mi6 mi6 mi6 mi6 mi6 mi6 mi6 mi6 mi6 mi6 mi6 mi6 mi6 mi6 mi6 mi6 mi6 mi6 mi6 mi6 mi6 mi6 mi6 mi6 mi6 mi6 mi6 mi6 mi6 mi6 mi6 mi6 mi6 mi6 mi6 mi6 mi6 mi
Precipitation 0%0%0%0%0%0%0%0%0%0%0%0%0%0%0%0%0%0%0%0%0%0%0%0%0%0%0%0%0%0%0%0%0%0%0%0%0%0%0%0%0%0%0%0%0%0%40%16%
Humidity 77%84%79%76%74%75%78%83%86%85%73%64%53%44%35%30%27%26%26%27%33%42%44%45%49%51%56%61%65%68%72%77%81%81%70%58%47%38%32%29%28%27%27%34%44%52%57%62%
Dew Point 68°F71°F68°F66°F64°F63°F62°F63°F64°F65°F66°F66°F66°F64°F62°F59°F58°F57°F56°F56°F61°F61°F58°F58°F58°F58°F59°F61°F62°F62°F64°F65°F66°F67°F68°F67°F66°F63°F61°F60°F59°F59°F60°F64°F66°F67°F68°F68°F
Pressure 30.03"30.03"30.03"30.03"30"29.97"29.97"29.97"29.97"30"30"30"30.03"30"29.97"29.97"29.94"29.91"29.91"29.88"29.88"29.88"29.88"29.91"29.91"29.91"29.91"29.91"29.88"29.88"29.88"29.88"29.88"29.91"29.91"29.91"29.91"29.91"29.91"29.88"29.85"29.83"29.83"29.8"29.8"29.8"29.83"29.83"
Wind Speed 4.4 mph4.3 mph4.4 mph4.5 mph3.8 mph3.4 mph3.4 mph3.8 mph4.2 mph3.6 mph4.7 mph4.5 mph4 mph3.8 mph3.5 mph3.4 mph3.2 mph2.7 mph2.8 mph2.8 mph2.3 mph1.3 mph0.8 mph2.5 mph2.6 mph2.7 mph3.5 mph3.5 mph3 mph2.2 mph2.5 mph2.9 mph3 mph3.1 mph3 mph4 mph4.5 mph4.7 mph5.5 mph6.1 mph6.5 mph6.4 mph6 mph4.2 mph5 mph6.2 mph6.6 mph3.9 mph
Wind
Direction
66°
ENE
67°
ENE
70°
ENE
95°
E
102°
ESE
105°
ESE
95°
E
91°
E
95°
E
103°
ESE
128°
SE
138°
SE
148°
SSE
163°
SSE
187°
S
196°
SSW
214°
SW
232°
SW
243°
WSW
255°
WSW
263°
W
251°
WSW
154°
SSE
131°
SE
110°
ESE
105°
ESE
140°
SE
167°
SSE
175°
S
185°
S
182°
S
171°
S
179°
S
185°
S
207°
SSW
238°
WSW
248°
WSW
255°
WSW
260°
W
269°
W
266°
W
268°
W
271°
W
261°
W
233°
SW
247°
WSW
236°
SW
232°
SW

Daily Forecast

Date High Low Precip. Humidity
Today
Aug 13

Clouds
93 °F
68 °F
0%
36%
Sunday
Aug 14

Clouds
98 °F
69 °F
0%
35%
Monday
Aug 15

Rain
99 °F
72 °F
28%
32%
Tuesday
Aug 16

Rain
97 °F
72 °F
38%
30%
Wednesday
Aug 17

Rain
84 °F
68 °F
100%
67%
Thursday
Aug 18

Rain
75 °F
71 °F
100%
92%
Friday
Aug 19

Rain
84 °F
71 °F
100%
85%
Saturday
Aug 20

Rain
90 °F
71 °F
100%
58%
Sunday
Aug 21

Rain
84 °F
71 °F
89%
87%
Monday
Aug 22

Rain
73 °F
70 °F
100%
98%
Tuesday
Aug 23

Rain
81 °F
70 °F
100%
79%
Wednesday
Aug 24

Clear
89 °F
67 °F
69%
39%
Thursday
Aug 25

Clear
91 °F
67 °F
0%
35%
Friday
Aug 26

Clouds
93 °F
69 °F
0%
37%
Saturday
Aug 27

Rain
93 °F
73 °F
36%
36%
Sunday
Aug 28

Rain
91 °F
70 °F
20%
42%

Temperature 8-14 Day Outlook



Precipitation 8-14 Day Outlook




Quick Links
Lake Tuscaloosa News
Lake Tuscaloosa Photos
Lake Tuscaloosa Videos




About Us
Contact Us
Site Map
Search Site
Advertise With Us
   
www.LakeTuscaloosa.info
THE LAKE TUSCALOOSA WEBSITE

Copyright 2022, Lakes Online
Privacy    |    Legal